Location: Dumpton Point
(51.3500°N, 1.4433°E)
Time: 13:07:52
(UTC+00:00)

Cosmos 2237 Rocket - Pass Details

Date: 09 April 2020
Orbit: 833 x 851 km, 71.0° (Epoch: 02 June)

Event Time Altitude Azimuth Distance (km) Brightness Sun altitude
Rises 23:34:33 0° 330° (NNW) 3,408 6.3 -30.4°
Reaches altitude 10° 23:37:34 10° 345° (NNW) 2,474 5.5 -30.5°
Maximum altitude 23:41:58 22° 36° (NE) 1,755 4.3 -30.5°
Enters shadow 23:45:52 12° 84° (E) 2,342 4.5 -30.6°
